"Pseudo-MPEC" for RdSH469

Created 2025 Apr 28 5:31:10 UT using Find_Orb

Click here for an explanation of pseudo-MPECs

 
 Astrometry: 
     RdSH469*KB2025 04 24.95864613 09 52.647+21 04 01.34   ~4PAl 20.4 VZNEOCPY89
     RdSH469 KB2025 04 24.97392913 09 51.503+21 04 06.37   ~4PAl 20.9 VZNEOCPY89
     RdSH469 KB2025 04 24.98920113 09 50.425+21 04 10.95   ~4PAl 20.8 VZNEOCPY89

Station data:
(Y89) Proxima Centauri Observatory, Valdin  (N42.222443 W6.988110)  Spain.

Orbital elements:  RdSH469
   Perihelion 2024 Nov 15.61821 +/- 324 TT = 14:50:13 (JD 2460630.11821)
Epoch 2025 Apr 25.0 TT = JDT 2460790.5   Earth MOID: 0.1083      AutoNEOCP
M  12.99793317 +/- 80               (J2000 ecliptic)
n   0.08104369 +/- 0.16             Peri.  247.66401 +/- 44
a   5.28838684 +/- 6.95             Node   176.86382 +/- 56
e   0.9202847 +/- 0.253             Incl.   41.10912 +/- 57
P  12.16144                H 16.53  G  0.15   U 11.5  SR
q 0.42156521 +/- 1.13    Q 10.1552084 +/- 29.4
From 3 observations 2025 Apr. 24 (44.0 min); mean residual 0".17
Residuals in arcseconds: 
250424 Y89  .15+  .07-    250424 Y89  .30-  .14+    250424 Y89  .15+  .07-    

Ephemerides (geocentric):
Date (UTC) HH   RA             Dec           delta  r     elong  mag " sig PA
---- --------  ------------   ------------  ------ ------ -----  --- --------
2025 04 28 06  13 06 08.883   +21 19 03.79  1.8566 2.7061 140.0 20.8  777  81
2025 04 28 07  13 06 06.185   +21 19 13.51  1.8574 2.7066 139.9 20.8  787  81
2025 04 28 08  13 06 03.490   +21 19 23.18  1.8581 2.7070 139.9 20.8  797  81
2025 04 28 09  13 06 00.798   +21 19 32.81  1.8589 2.7075 139.9 20.8  807  81
2025 04 28 10  13 05 58.110   +21 19 42.41  1.8597 2.7080 139.8 20.8  817  80
2025 04 28 11  13 05 55.425   +21 19 51.96  1.8605 2.7085 139.8 20.8  827  80
2025 04 28 12  13 05 52.744   +21 20 01.47  1.8612 2.7089 139.7 20.8  838  80
2025 04 28 13  13 05 50.066   +21 20 10.94  1.8620 2.7094 139.7 20.8  848  80
2025 04 28 14  13 05 47.391   +21 20 20.36  1.8628 2.7099 139.7 20.8  858  80
2025 04 28 15  13 05 44.720   +21 20 29.75  1.8636 2.7104 139.6 20.8  868  80
2025 04 28 16  13 05 42.052   +21 20 39.10  1.8644 2.7108 139.6 20.8  878  80
2025 04 28 17  13 05 39.387   +21 20 48.41  1.8651 2.7113 139.6 20.8  889  80
2025 04 28 18  13 05 36.726   +21 20 57.67  1.8659 2.7118 139.5 20.8  899  80
2025 04 28 19  13 05 34.068   +21 21 06.90  1.8667 2.7123 139.5 20.8  909  80
2025 04 28 20  13 05 31.414   +21 21 16.08  1.8675 2.7127 139.4 20.8  920  79
2025 04 28 21  13 05 28.763   +21 21 25.23  1.8683 2.7132 139.4 20.9  930  79
2025 04 28 22  13 05 26.115   +21 21 34.33  1.8690 2.7137 139.4 20.9  940  79
2025 04 28 23  13 05 23.471   +21 21 43.40  1.8698 2.7142 139.3 20.9  951  79
2025 04 29 00  13 05 20.830   +21 21 52.42  1.8706 2.7146 139.3 20.9  961  79
2025 04 29 01  13 05 18.192   +21 22 01.41  1.8714 2.7151 139.3 20.9  971  79
2025 04 29 02  13 05 15.558   +21 22 10.35  1.8722 2.7156 139.2 20.9  982  79
2025 04 29 03  13 05 12.927   +21 22 19.25  1.8730 2.7161 139.2 20.9  992  79
2025 04 29 04  13 05 10.300   +21 22 28.12  1.8737 2.7165 139.1 20.9 1003  79
2025 04 29 05  13 05 07.676   +21 22 36.94  1.8745 2.7170 139.1 20.9 1013  79
2025 04 29 06  13 05 05.055   +21 22 45.73  1.8753 2.7175 139.1 20.9 1024  79
2025 04 29 07  13 05 02.438   +21 22 54.47  1.8761 2.7180 139.0 20.9 1034  78
2025 04 29 08  13 04 59.824   +21 23 03.17  1.8769 2.7184 139.0 20.9 1044  78
2025 04 29 09  13 04 57.214   +21 23 11.84  1.8777 2.7189 139.0 20.9 1055  78
2025 04 29 10  13 04 54.607   +21 23 20.46  1.8785 2.7194 138.9 20.9 1066  78
2025 04 29 11  13 04 52.003   +21 23 29.05  1.8792 2.7199 138.9 20.9 1076  78
2025 04 29 12  13 04 49.403   +21 23 37.59  1.8800 2.7203 138.8 20.9 1087  78
2025 04 29 13  13 04 46.806   +21 23 46.10  1.8808 2.7208 138.8 20.9 1097  78
2025 04 29 14  13 04 44.212   +21 23 54.56  1.8816 2.7213 138.8 20.9 1108  78
2025 04 29 15  13 04 41.622   +21 24 02.99  1.8824 2.7217 138.7 20.9 1118  78
2025 04 29 16  13 04 39.035   +21 24 11.38  1.8832 2.7222 138.7 20.9 1129  78
2025 04 29 17  13 04 36.452   +21 24 19.72  1.8840 2.7227 138.7 20.9 1140  78
2025 04 29 18  13 04 33.872   +21 24 28.03  1.8848 2.7232 138.6 20.9 1150  78
2025 04 29 19  13 04 31.295   +21 24 36.30  1.8855 2.7236 138.6 20.9 1161  77
2025 04 29 20  13 04 28.722   +21 24 44.53  1.8863 2.7241 138.5 20.9 1172  77
2025 04 29 21  13 04 26.152   +21 24 52.72  1.8871 2.7246 138.5 20.9 1182  77
2025 04 29 22  13 04 23.586   +21 25 00.87  1.8879 2.7251 138.5 20.9 1193  77
2025 04 29 23  13 04 21.023   +21 25 08.98  1.8887 2.7255 138.4 20.9 1204  77
2025 04 30 00  13 04 18.463   +21 25 17.06  1.8895 2.7260 138.4 20.9 1215  77
2025 04 30 01  13 04 15.907   +21 25 25.09  1.8903 2.7265 138.4 20.9 1226  77
2025 04 30 02  13 04 13.354   +21 25 33.08  1.8911 2.7270 138.3 20.9 1236  77
2025 04 30 03  13 04 10.805   +21 25 41.04  1.8919 2.7274 138.3 20.9 1247  77
2025 04 30 04  13 04 08.259   +21 25 48.95  1.8927 2.7279 138.2 20.9 1258  77
2025 04 30 05  13 04 05.716   +21 25 56.83  1.8935 2.7284 138.2 20.9 1269  77